{"data":{"norad_id":57652,"epoch":"2026-09-20T04:43:50.211552Z","epoch_age_seconds":157492,"freshness":"FRESH","line1":"1 57652U 23122W   26263.19710893 -.00001720  00000+0 -53042-4 0  9991","line2":"2 57652  43.0046  74.0849 0001181 264.9535  95.1182 15.27559852171959","mean_motion":15.27559852,"eccentricity":0.0001181,"inclination_deg":43.0046,"raan_deg":74.0849,"arg_perigee_deg":264.9535,"mean_anomaly_deg":95.1182,"bstar":-5.3042e-5,"rev_number":17195,"period_min":94.26799206032,"perigee_km":482.29911385993,"apogee_km":483.91974026601,"semimajor_km":6861.246427063,"source":"CELESTRAK","updated_at":"2026-09-21T09:00:33.669208Z"}}